Location: Bishop�s Knoyle
(51.0728°N, 2.1714°W)
Time: 09:32:55
(UTC+00:00)

ATLAS CENTAUR R/B - Pass Details

Date: 26 January 2021
Orbit: 471 x 674 km, 64.6° (Epoch: 24 February)

Event Time Altitude Azimuth Distance (km) Brightness Sun altitude
Exits shadow 06:05:11 25° 227° (SW) 979 2.2 -16.9°
Maximum altitude 06:07:09 81° 312° (NW) 484 0.9 -16.6°
Drops below altitude 10° 06:10:49 10° 40° (NE) 1,653 4.2 -16.0°
Sets 06:12:58 0° 42° (NE) 2,549 5.2 -15.7°
